This is the latest recevied weather packets stored in our database for station/object IW1RCO-13. If no packets are shown the sender has not sent any weather packets the latest 10 day(s).
| Time | Temp. | Humidity | Pressure | Rain* | Wind** | Luminosity | Snow |
|---|---|---|---|---|---|---|---|
| 1788566969 | 18.89° C | 64% | 1018.9 hPa | - | - | - | - |
| 1788566672 | 19.44° C | 64% | 1019.2 hPa | - | - | - | - |
| 1788566368 | 18.89° C | 63% | 1019 hPa | - | - | - | - |
| 1788566072 | 19.44° C | 64% | 1019.7 hPa | - | - | - | - |
| 1788565768 | 19.44° C | 62% | 1019.4 hPa | - | - | - | - |
| 1788565471 | 19.44° C | 61% | 1019.7 hPa | - | - | - | - |
| 1788565168 | 19.44° C | 62% | 1019.1 hPa | - | - | - | - |
| 1788564871 | 19.44° C | 64% | 1018.9 hPa | - | - | - | - |
| 1788564567 | 18.89° C | 66% | 1019.4 hPa | - | - | - | - |
| 1788564271 | 18.89° C | 67% | 1019.5 hPa | - | - | - | - |
| 1788563967 | 19.44° C | 65% | 1019.3 hPa | - | - | - | - |
| 1788563671 | 19.44° C | 66% | 1019.3 hPa | - | - | - | - |
| 1788561573 | 20° C | 63% | 1019.7 hPa | - | - | - | - |
| 1788561269 | 20° C | 63% | 1019.7 hPa | - | - | - | - |
| 1788560973 | 19.44° C | 64% | 1019.2 hPa | - | - | - | - |
| 1788560669 | 20° C | 67% | 1019.3 hPa | - | - | - | - |
| 1788560372 | 20° C | 65% | 1019.5 hPa | - | - | - | - |
| 1788560069 | 19.44° C | 65% | 1019.6 hPa | - | - | - | - |
| 1788559772 | 19.44° C | 67% | 1019.6 hPa | - | - | - | - |
| 1788559468 | 18.89° C | 68% | 1019.7 hPa | - | - | - | - |
| 1788559171 | 18.89° C | 68% | 1019.3 hPa | - | - | - | - |
| 1788558868 | 19.44° C | 68% | 1019.6 hPa | - | - | - | - |
| 1788558571 | 18.89° C | 68% | 1019.7 hPa | - | - | - | - |
| 1788558267 | 18.89° C | 70% | 1018.9 hPa | - | - | - | - |
| 1788557971 | 19.44° C | 69% | 1019.6 hPa | - | - | - | - |
* Rain since midnight (hover to see other rain measurements)
** Current wind speed in m/s (hover to see current wind gust speed)